,,PA_Meas_PMT16A,,PR_Meas_QMR101_102,,RH_Meas_QMH101,,SR_Meas_QMS101,,TA_Meas_QMH101,,GenWind,,GenWind,
time,status,PA,status,PR,status,RH,status,SR,status,TA,status,DirAvg,status,SpdAvg,
2014-10-20, 00:00:04,VALID,918.646,VALID,0,VALID,96.5734,VALID,0,VALID,20.2489,VALID,312,VALID,0,
2014-10-20, 00:01:04,VALID,918.649,VALID,0,VALID,96.5658,VALID,0,VALID,20.2278,VALID,312,VALID,0,
2014-10-20, 00:02:04,VALID,918.616,VALID,0,VALID,96.5734,VALID,0,VALID,20.2489,VALID,312,VALID,0,
2014-10-20, 00:03:04,VALID,918.654,VALID,0,VALID,96.5887,VALID,0,VALID,20.2684,VALID,312,VALID,0,
2014-10-20, 00:04:04,VALID,918.669,VALID,0,VALID,96.6115,VALID,0,VALID,20.2863,VALID,312,VALID,0,
2014-10-20, 00:05:04,VALID,918.647,VALID,0,VALID,96.642,VALID,0,VALID,20.2879,VALID,312,VALID,0,
2014-10-20, 00:06:04,VALID,918.654,VALID,0,VALID,96.6039,VALID,0,VALID,20.2489,VALID,312,VALID,0,
2014-10-20, 00:07:04,VALID,918.635,VALID,0,VALID,96.5811,VALID,0,VALID,20.2489,VALID,312,VALID,0,
2014-10-20, 00:08:04,VALID,918.625,VALID,0,VALID,96.5963,VALID,0,VALID,20.2489,VALID,312,VALID,0,
2014-10-20, 00:09:04,VALID,918.601,VALID,0,VALID,96.5658,VALID,0,VALID,20.2293,VALID,312,VALID,0,
2014-10-20, 00:10:04,VALID,918.601,VALID,0,VALID,96.5887,VALID,0,VALID,20.2293,VALID,312,VALID,0,
2014-10-20, 00:11:04,VALID,918.579,VALID,0,VALID,96.6115,VALID,0,VALID,20.2489,VALID,312,VALID,0,
2014-10-20, 00:12:04,VALID,918.57,VALID,0,VALID,96.6268,VALID,0,VALID,20.2293,VALID,312,VALID,0,
2014-10-20, 00:13:04,VALID,918.56,VALID,0,VALID,96.6573,VALID,0,VALID,20.2489,VALID,312,VALID,0,
2014-10-20, 00:14:04,VALID,918.579,VALID,0,VALID,96.6878,VALID,0,VALID,20.2879,VALID,312,VALID,0,
2014-10-20, 00:15:04,VALID,918.545,VALID,0,VALID,96.7259,VALID,0,VALID,20.3074,VALID,312,VALID,0,
2014-10-20, 00:16:04,VALID,918.564,VALID,0,VALID,96.7488,VALID,0,VALID,20.3269,VALID,353,VALID,0,
2014-10-20, 00:17:04,VALID,918.547,VALID,0,VALID,96.7411,VALID,0,VALID,20.3074,VALID,353,VALID,0,
2014-10-20, 00:18:04,VALID,918.581,VALID,0,VALID,96.7183,VALID,0,VALID,20.3074,VALID,353,VALID,0,
2014-10-20, 00:19:04,VALID,918.59,VALID,0,VALID,96.7183,VALID,0,VALID,20.2684,VALID,353,VALID,0,
2014-10-20, 00:20:04,VALID,918.57,VALID,0,VALID,96.703,VALID,0,VALID,20.2684,VALID,353,VALID,0,
2014-10-20, 00:21:04,VALID,918.559,VALID,0,VALID,96.7259,VALID,0,VALID,20.2473,VALID,353,VALID,0,
2014-10-20, 00:22:04,VALID,918.566,VALID,0,VALID,96.7259,VALID,0,VALID,20.2684,VALID,353,VALID,0,
2014-10-20, 00:23:04,VALID,918.554,VALID,0,VALID,96.7716,VALID,0.107441,VALID,20.2668,VALID,358,VALID,0,
2014-10-20, 00:24:04,VALID,918.582,VALID,0,VALID,96.7488,VALID,0,VALID,20.2083,VALID,358,VALID,0,
2014-10-20, 00:25:04,VALID,918.569,VALID,0,VALID,96.7716,VALID,0,VALID,20.2489,INVALID,360,VALID,0,
2014-10-20, 00:26:04,VALID,918.577,VALID,0,VALID,96.7869,VALID,0,VALID,20.2473,VALID,358,VALID,0,
2014-10-20, 00:27:04,VALID,918.548,VALID,0,VALID,96.7945,VALID,0.107441,VALID,20.2489,VALID,358,VALID,0,
2014-10-20, 00:28:04,VALID,918.536,VALID,0,VALID,96.764,VALID,0.107441,VALID,20.2083,VALID,358,VALID,0,
2014-10-20, 00:29:04,VALID,918.521,VALID,0,VALID,96.7793,VALID,0.107441,VALID,20.1498,VALID,358,VALID,0,
2014-10-20, 00:30:04,VALID,918.494,VALID,0,VALID,96.764,VALID,0,VALID,20.1303,VALID,358,VALID,0,
2014-10-20, 00:31:04,VALID,918.479,VALID,0,VALID,96.7564,VALID,0,VALID,20.1108,VALID,358,VALID,0,
2014-10-20, 00:32:04,VALID,918.484,VALID,0,VALID,96.8021,VALID,0,VALID,20.0913,VALID,358,VALID,0,
2014-10-20, 00:33:04,VALID,918.478,VALID,0,VALID,96.8326,VALID,0,VALID,20.1123,VALID,358,VALID,0,
2014-10-20, 00:34:04,VALID,918.482,VALID,0,VALID,96.8784,VALID,0,VALID,20.0718,VALID,358,VALID,0,
2014-10-20, 00:35:04,VALID,918.47,VALID,0,VALID,96.886,VALID,0,VALID,20.0718,VALID,358,VALID,0,
2014-10-20, 00:36:04,VALID,918.432,VALID,0,VALID,96.947,VALID,0.107441,VALID,20.1318,VALID,358,VALID,0,
2014-10-20, 00:37:04,VALID,918.414,VALID,0,VALID,96.9546,VALID,0,VALID,20.1123,INVALID,360,VALID,0,
2014-10-20, 00:38:04,VALID,918.406,VALID,0,VALID,96.9851,VALID,0.107441,VALID,20.1123,VALID,358,VALID,0,
2014-10-20, 00:39:04,VALID,918.349,VALID,0,VALID,96.9927,VALID,0.107441,VALID,20.0913,VALID,346,VALID,0,
2014-10-20, 00:40:04,VALID,918.336,VALID,0,VALID,97.0003,VALID,0,VALID,20.0718,VALID,359,VALID,0,
2014-10-20, 00:41:04,VALID,918.317,VALID,0,VALID,97.0232,VALID,0.107441,VALID,20.0913,VALID,353,VALID,0,
2014-10-20, 00:42:04,VALID,918.301,VALID,0,VALID,97.0308,VALID,0,VALID,20.0928,VALID,9,VALID,0,
2014-10-20, 00:43:04,VALID,918.273,VALID,0,VALID,97.0385,VALID,0,VALID,20.0523,VALID,22,VALID,0,
2014-10-20, 00:44:04,VALID,918.263,VALID,0,VALID,97.0613,VALID,0,VALID,20.0328,VALID,10,VALID,0,
2014-10-20, 00:45:04,VALID,918.26,VALID,0,VALID,97.0842,VALID,0,VALID,20.0538,VALID,19,VALID,0,
2014-10-20, 00:46:04,VALID,918.236,VALID,0,VALID,97.0994,VALID,0,VALID,20.0328,VALID,6,VALID,0,
2014-10-20, 00:47:04,VALID,918.261,VALID,0,VALID,97.1071,VALID,0,VALID,20.0343,VALID,6,VALID,0,
2014-10-20, 00:48:04,VALID,918.234,VALID,0,VALID,97.1299,VALID,0.107441,VALID,20.0343,VALID,4,VALID,0,
2014-10-20, 00:49:04,VALID,918.2,VALID,0,VALID,97.1376,VALID,0.107441,VALID,20.0148,VALID,13,VALID,0,
2014-10-20, 00:50:04,VALID,918.184,VALID,0,VALID,97.1452,VALID,0,VALID,20.0148,VALID,29,VALID,0,
2014-10-20, 00:51:04,VALID,918.171,VALID,0,VALID,97.1681,VALID,0.107441,VALID,20.0133,VALID,35,VALID,0,
2014-10-20, 00:52:04,VALID,918.134,VALID,0,VALID,97.1909,VALID,0.107441,VALID,20.0538,VALID,35,VALID,0,
2014-10-20, 00:53:04,VALID,918.136,VALID,0,VALID,97.2214,VALID,0,VALID,20.0733,VALID,16,VALID,0,
2014-10-20, 00:54:04,VALID,918.142,VALID,0,VALID,97.2138,VALID,0.107441,VALID,20.0133,VALID,359,VALID,0,
2014-10-20, 00:55:04,VALID,918.121,VALID,0,VALID,97.229,VALID,0,VALID,20.0148,VALID,359,VALID,0,
2014-10-20, 00:56:04,VALID,918.122,VALID,0,VALID,97.2214,VALID,0,VALID,19.9938,VALID,359,VALID,0,
2014-10-20, 00:57:04,VALID,918.101,VALID,0,VALID,97.229,VALID,0,VALID,19.9938,VALID,359,VALID,0,
2014-10-20, 00:58:04,VALID,918.092,VALID,0,VALID,97.2443,VALID,0.107441,VALID,19.9938,VALID,359,VALID,0,
2014-10-20, 00:59:04,VALID,918.072,VALID,0,VALID,97.2443,VALID,0,VALID,19.9743,VALID,359,VALID,0,
2014-10-20, 01:00:04,VALID,918.023,VALID,0,VALID,97.2519,VALID,0.107441,VALID,19.9938,VALID,359,VALID,0,
2014-10-20, 01:01:04,VALID,918.008,VALID,0,VALID,97.2672,VALID,0,VALID,20.0538,VALID,359,VALID,0,
2014-10-20, 01:02:04,VALID,918.001,VALID,0,VALID,97.2824,VALID,0.107441,VALID,20.0733,VALID,359,VALID,0,
2014-10-20, 01:03:04,VALID,918,VALID,0,VALID,97.2824,VALID,0,VALID,20.0718,VALID,359,VALID,0,
2014-10-20, 01:04:04,VALID,917.986,VALID,0,VALID,97.2977,VALID,0,VALID,20.1318,VALID,359,VALID,0,
2014-10-20, 01:05:04,VALID,917.949,VALID,0,VALID,97.29,VALID,0,VALID,20.1318,VALID,359,VALID,0,
2014-10-20, 01:06:04,VALID,917.999,VALID,0,VALID,97.3053,VALID,0,VALID,20.1513,VALID,359,VALID,0,
2014-10-20, 01:07:04,VALID,917.964,VALID,0,VALID,97.3281,VALID,0,VALID,20.1708,VALID,359,VALID,0,
2014-10-20, 01:08:04,VALID,917.975,VALID,0,VALID,97.3205,VALID,0,VALID,20.1693,VALID,359,VALID,0,
2014-10-20, 01:09:04,VALID,917.959,VALID,0,VALID,97.3281,VALID,0.107441,VALID,20.1498,VALID,359,VALID,0,
2014-10-20, 01:10:04,VALID,917.917,VALID,0,VALID,97.3434,VALID,0,VALID,20.1708,VALID,359,VALID,0,
2014-10-20, 01:11:04,VALID,917.943,VALID,0,VALID,97.3358,VALID,0,VALID,20.1708,VALID,359,VALID,0,
2014-10-20, 01:12:04,VALID,917.909,VALID,0,VALID,97.3434,VALID,0.107441,VALID,20.1693,VALID,359,VALID,0,
2014-10-20, 01:13:04,VALID,917.938,VALID,0,VALID,97.3358,VALID,0,VALID,20.2098,VALID,359,VALID,0,
2014-10-20, 01:14:04,VALID,917.9,VALID,0,VALID,97.351,VALID,0,VALID,20.2293,VALID,359,VALID,0,
2014-10-20, 01:15:04,VALID,917.881,VALID,0,VALID,97.351,VALID,0.107441,VALID,20.1888,VALID,359,VALID,0,
2014-10-20, 01:16:04,VALID,917.872,VALID,0,VALID,97.3586,VALID,0,VALID,20.2098,VALID,359,VALID,0,
2014-10-20, 01:17:04,VALID,917.854,VALID,0,VALID,97.351,VALID,0.107441,VALID,20.1903,VALID,359,VALID,0,
2014-10-20, 01:18:04,VALID,917.826,VALID,0,VALID,97.3739,VALID,0,VALID,20.1693,VALID,359,VALID,0,
2014-10-20, 01:19:04,VALID,917.816,VALID,0,VALID,97.3815,VALID,0,VALID,20.1708,VALID,359,VALID,0,
2014-10-20, 01:20:04,VALID,917.818,VALID,0,VALID,97.3586,VALID,0.107441,VALID,20.1903,VALID,359,VALID,0,
2014-10-20, 01:21:04,VALID,917.844,VALID,0,VALID,97.3739,VALID,0,VALID,20.2098,VALID,359,VALID,0,
2014-10-20, 01:22:04,VALID,917.799,VALID,0,VALID,97.3739,VALID,0,VALID,20.1708,VALID,359,VALID,0,
2014-10-20, 01:23:04,VALID,917.792,VALID,0,VALID,97.3739,VALID,0,VALID,20.1708,VALID,359,VALID,0,
2014-10-20, 01:24:04,VALID,917.779,VALID,0,VALID,97.3663,VALID,0,VALID,20.1693,VALID,359,VALID,0,
2014-10-20, 01:25:04,VALID,917.804,VALID,0,VALID,97.3815,VALID,0,VALID,20.1888,VALID,360,VALID,0,
2014-10-20, 01:26:04,VALID,917.78,VALID,0,VALID,97.3663,VALID,0,VALID,20.2098,VALID,360,VALID,0,
2014-10-20, 01:27:04,VALID,917.771,VALID,0,VALID,97.3663,VALID,0,VALID,20.2293,VALID,360,VALID,0,
2014-10-20, 01:28:04,VALID,917.803,VALID,0,VALID,97.3586,VALID,0,VALID,20.2293,INVALID,360,VALID,0,
2014-10-20, 01:29:04,VALID,917.793,VALID,0,VALID,97.3815,VALID,0,VALID,20.1888,VALID,360,VALID,0,
2014-10-20, 01:30:04,VALID,917.783,VALID,0,VALID,97.3739,VALID,0,VALID,20.1903,VALID,360,VALID,0,
2014-10-20, 01:31:04,VALID,917.791,VALID,0,VALID,97.3739,VALID,0,VALID,20.1513,VALID,360,VALID,0,
2014-10-20, 01:32:04,VALID,917.793,VALID,0,VALID,97.3891,VALID,0,VALID,20.1123,VALID,360,VALID,0,
2014-10-20, 01:33:04,VALID,917.804,VALID,0,VALID,97.3739,VALID,0,VALID,20.0928,VALID,359,VALID,0,
2014-10-20, 01:34:04,VALID,917.795,VALID,0,VALID,97.3586,VALID,0,VALID,20.1123,VALID,360,VALID,0,
2014-10-20, 01:35:04,VALID,917.771,VALID,0,VALID,97.3815,VALID,0,VALID,20.1318,VALID,359,VALID,0,
2014-10-20, 01:36:04,VALID,917.748,VALID,0,VALID,97.3663,VALID,0,VALID,20.0913,VALID,360,VALID,0,
2014-10-20, 01:37:04,VALID,917.722,VALID,0,VALID,97.3663,VALID,0,VALID,20.1108,VALID,359,VALID,0,
2014-10-20, 01:38:04,VALID,917.727,VALID,0,VALID,97.3663,VALID,0,VALID,20.0928,VALID,359,VALID,0,
2014-10-20, 01:39:04,VALID,917.693,VALID,0,VALID,97.3739,VALID,0,VALID,20.0928,VALID,358,VALID,0,
2014-10-20, 01:40:04,VALID,917.694,VALID,0,VALID,97.3739,VALID,0,VALID,20.0928,VALID,360,VALID,0,
2014-10-20, 01:41:04,VALID,917.659,VALID,0,VALID,97.351,VALID,0,VALID,20.0928,VALID,360,VALID,0,
2014-10-20, 01:42:04,VALID,917.662,VALID,0,VALID,97.351,VALID,0.107441,VALID,20.1108,VALID,360,VALID,0,
2014-10-20, 01:43:04,VALID,917.621,VALID,0,VALID,97.3586,VALID,0,VALID,20.1513,VALID,360,VALID,0,
2014-10-20, 01:44:04,VALID,917.631,VALID,0,VALID,97.3586,VALID,0,VALID,20.1708,VALID,360,VALID,0,
2014-10-20, 01:45:04,VALID,917.601,VALID,0,VALID,97.3586,VALID,0,VALID,20.2098,VALID,360,VALID,0,
2014-10-20, 01:46:04,VALID,917.578,VALID,0,VALID,97.3586,VALID,0,VALID,20.2098,VALID,360,VALID,0,
2014-10-20, 01:47:04,VALID,917.582,VALID,0,VALID,97.3663,VALID,0,VALID,20.1513,VALID,360,VALID,0,
2014-10-20, 01:48:04,VALID,917.545,VALID,0,VALID,97.3663,VALID,0,VALID,20.1513,VALID,360,VALID,0,
2014-10-20, 01:49:04,VALID,917.567,VALID,0,VALID,97.3586,VALID,0,VALID,20.1708,VALID,360,VALID,0,
2014-10-20, 01:50:04,VALID,917.562,VALID,0,VALID,97.3663,VALID,0,VALID,20.1318,VALID,360,VALID,0,
2014-10-20, 01:51:04,VALID,917.559,VALID,0,VALID,97.3586,VALID,0,VALID,20.1318,VALID,360,VALID,0,
2014-10-20, 01:52:04,VALID,917.587,VALID,0,VALID,97.3434,VALID,0,VALID,20.1318,VALID,358,VALID,0,
2014-10-20, 01:53:04,VALID,917.589,VALID,0,VALID,97.3358,VALID,0,VALID,20.1318,VALID,357,VALID,0,
2014-10-20, 01:54:04,VALID,917.593,VALID,0,VALID,97.351,VALID,0,VALID,20.0928,VALID,344,VALID,0,
2014-10-20, 01:55:04,VALID,917.615,VALID,0,VALID,97.3129,VALID,0,VALID,20.1123,VALID,5,VALID,0,
2014-10-20, 01:56:04,VALID,917.592,VALID,0,VALID,97.3358,VALID,0,VALID,20.0718,VALID,4,VALID,0,
2014-10-20, 01:57:04,VALID,917.597,VALID,0,VALID,97.3205,VALID,0,VALID,20.1123,VALID,5,VALID,0,
2014-10-20, 01:58:04,VALID,917.642,VALID,0,VALID,97.3434,VALID,0,VALID,20.1123,VALID,1,VALID,0,
2014-10-20, 01:59:04,VALID,917.597,VALID,0,VALID,97.3281,VALID,0,VALID,20.1108,VALID,359,VALID,0,
2014-10-20, 02:00:04,VALID,917.568,VALID,0,VALID,97.3358,VALID,0,VALID,20.1318,VALID,359,VALID,0,
2014-10-20, 02:01:04,VALID,917.598,VALID,0,VALID,97.3205,VALID,0,VALID,20.1708,VALID,359,VALID,0,
2014-10-20, 02:02:04,VALID,917.62,VALID,0,VALID,97.3129,VALID,0,VALID,20.1903,VALID,359,VALID,0,
2014-10-20, 02:03:04,VALID,917.589,VALID,0,VALID,97.3205,VALID,0,VALID,20.1708,VALID,358,VALID,0,
2014-10-20, 02:04:04,VALID,917.548,VALID,0,VALID,97.3358,VALID,0,VALID,20.1693,VALID,358,VALID,0,
2014-10-20, 02:05:04,VALID,917.537,VALID,0,VALID,97.3358,VALID,0,VALID,20.2098,VALID,358,VALID,0,
2014-10-20, 02:06:04,VALID,917.503,VALID,0,VALID,97.3358,VALID,0,VALID,20.2098,VALID,14,VALID,0,
2014-10-20, 02:07:04,VALID,917.491,VALID,0,VALID,97.3129,VALID,0,VALID,20.2293,VALID,15,VALID,0,
2014-10-20, 02:08:04,VALID,917.506,VALID,0,VALID,97.3358,VALID,0,VALID,20.2293,VALID,28,VALID,0,
2014-10-20, 02:09:04,VALID,917.497,VALID,0,VALID,97.3205,VALID,0,VALID,20.2098,VALID,28,VALID,0,
2014-10-20, 02:10:04,VALID,917.483,VALID,0,VALID,97.3205,VALID,0,VALID,20.2098,VALID,27,VALID,0,
2014-10-20, 02:11:04,VALID,917.456,VALID,0,VALID,97.3129,VALID,0,VALID,20.2098,VALID,28,VALID,0,
2014-10-20, 02:12:04,VALID,917.462,VALID,0,VALID,97.3205,VALID,0,VALID,20.1708,VALID,358,VALID,0,
2014-10-20, 02:13:04,VALID,917.452,VALID,0,VALID,97.3205,VALID,0,VALID,20.1513,VALID,17,VALID,0,
2014-10-20, 02:14:04,VALID,917.418,VALID,0,VALID,97.3205,VALID,0,VALID,20.1498,VALID,24,VALID,0,
2014-10-20, 02:15:04,VALID,917.424,VALID,0,VALID,97.3129,VALID,0,VALID,20.1498,VALID,23,VALID,0,
2014-10-20, 02:16:04,VALID,917.401,VALID,0,VALID,97.3281,VALID,0,VALID,20.1303,VALID,10,VALID,0,
2014-10-20, 02:17:05,VALID,917.376,VALID,0,VALID,97.3281,VALID,0,VALID,20.1498,VALID,25,VALID,0,
2014-10-20, 02:18:05,VALID,917.326,VALID,0,VALID,97.3129,VALID,0,VALID,20.1708,VALID,25,VALID,0,
2014-10-20, 02:19:05,VALID,917.334,VALID,0,VALID,97.3358,VALID,0.107441,VALID,20.1513,VALID,357,VALID,0,
2014-10-20, 02:20:05,VALID,917.319,VALID,0,VALID,97.3434,VALID,0,VALID,20.1513,VALID,6,VALID,0,
2014-10-20, 02:21:05,VALID,917.293,VALID,0,VALID,97.351,VALID,0,VALID,20.1108,VALID,16,VALID,0,
2014-10-20, 02:22:05,VALID,917.298,VALID,0,VALID,97.3434,VALID,0.107441,VALID,20.1108,VALID,2,VALID,0,
2014-10-20, 02:23:05,VALID,917.27,VALID,0,VALID,97.351,VALID,0,VALID,20.0913,VALID,354,VALID,0,
2014-10-20, 02:24:05,VALID,917.256,VALID,0,VALID,97.351,VALID,0,VALID,20.0718,VALID,11,VALID,0,
2014-10-20, 02:25:05,VALID,917.283,VALID,0,VALID,97.3663,VALID,0,VALID,20.0328,VALID,353,VALID,0,
2014-10-20, 02:26:05,VALID,917.268,VALID,0,VALID,97.3663,VALID,0,VALID,20.0148,VALID,351,VALID,0.05625,
2014-10-20, 02:27:05,VALID,917.244,VALID,0,VALID,97.3739,VALID,0,VALID,20.0148,VALID,336,VALID,0,
2014-10-20, 02:28:05,VALID,917.251,VALID,0,VALID,97.3739,VALID,0,VALID,19.9938,VALID,18,VALID,0,
2014-10-20, 02:29:05,VALID,917.264,VALID,0,VALID,97.3663,VALID,0,VALID,20.0133,VALID,6,VALID,0,
2014-10-20, 02:30:05,VALID,917.212,VALID,0,VALID,97.3739,VALID,0,VALID,20.0148,VALID,44,VALID,0,
2014-10-20, 02:31:05,VALID,917.221,VALID,0,VALID,97.3739,VALID,0,VALID,19.9743,VALID,22,VALID,0,
2014-10-20, 02:32:05,VALID,917.226,VALID,0,VALID,97.3968,VALID,0,VALID,19.9953,VALID,13,VALID,0,
2014-10-20, 02:33:05,VALID,917.19,VALID,0,VALID,97.3739,VALID,0,VALID,20.0148,VALID,13,VALID,0,
2014-10-20, 02:34:05,VALID,917.178,VALID,0,VALID,97.3663,VALID,0.107441,VALID,19.9938,VALID,19,VALID,0,
2014-10-20, 02:35:05,VALID,917.18,VALID,0,VALID,97.3739,VALID,0,VALID,20.0343,VALID,344,VALID,0,
2014-10-20, 02:36:05,VALID,917.188,VALID,0,VALID,97.3968,VALID,0,VALID,19.9938,VALID,357,VALID,0,
2014-10-20, 02:37:05,VALID,917.185,VALID,0,VALID,97.3815,VALID,0,VALID,20.0148,INVALID,360,VALID,0,
2014-10-20, 02:38:05,VALID,917.18,VALID,0,VALID,97.3968,VALID,0,VALID,19.9938,VALID,6,VALID,0,
2014-10-20, 02:39:05,VALID,917.198,VALID,0,VALID,97.4044,VALID,0,VALID,20.0133,VALID,6,VALID,0,
2014-10-20, 02:40:05,VALID,917.166,VALID,0,VALID,97.4273,VALID,0.107441,VALID,20.0328,VALID,6,VALID,0,
2014-10-20, 02:41:05,VALID,917.149,VALID,0,VALID,97.3968,VALID,0,VALID,20.0538,VALID,7,VALID,0,
2014-10-20, 02:42:05,VALID,917.164,VALID,0,VALID,97.3891,VALID,0,VALID,20.0523,VALID,7,VALID,0,
2014-10-20, 02:43:05,VALID,917.158,VALID,0,VALID,97.4044,VALID,0,VALID,20.0733,VALID,354,VALID,0,
2014-10-20, 02:44:05,VALID,917.177,VALID,0,VALID,97.4044,VALID,0,VALID,20.0928,VALID,354,VALID,0,
2014-10-20, 02:45:05,VALID,917.172,VALID,0,VALID,97.3968,VALID,0,VALID,20.0718,VALID,354,VALID,0,
2014-10-20, 02:46:05,VALID,917.194,VALID,0,VALID,97.4273,VALID,0,VALID,20.0523,VALID,344,VALID,0,
2014-10-20, 02:47:05,VALID,917.177,VALID,0,VALID,97.4044,VALID,0,VALID,20.0733,VALID,318,VALID,0,
2014-10-20, 02:48:05,VALID,917.177,VALID,0,VALID,97.4196,VALID,0,VALID,20.0523,VALID,324,VALID,0,
2014-10-20, 02:49:05,VALID,917.207,VALID,0,VALID,97.4044,VALID,0,VALID,20.0928,VALID,2,VALID,0,
2014-10-20, 02:50:05,VALID,917.221,VALID,0,VALID,97.4349,VALID,0,VALID,20.1123,VALID,2,VALID,0,
2014-10-20, 02:51:05,VALID,917.207,VALID,0,VALID,97.4196,VALID,0,VALID,20.1318,VALID,2,VALID,0,
2014-10-20, 02:52:05,VALID,917.239,VALID,0,VALID,97.4196,VALID,0.107441,VALID,20.1123,VALID,2,VALID,0,
2014-10-20, 02:53:05,VALID,917.219,VALID,0,VALID,97.412,VALID,0,VALID,20.1318,VALID,2,VALID,0,
2014-10-20, 02:54:05,VALID,917.227,VALID,0,VALID,97.4273,VALID,0,VALID,20.1303,VALID,2,VALID,0,
2014-10-20, 02:55:05,VALID,917.204,VALID,0,VALID,97.4196,VALID,0,VALID,20.1318,VALID,2,VALID,0,
2014-10-20, 02:56:05,VALID,917.199,VALID,0,VALID,97.4196,VALID,0.107441,VALID,20.1108,VALID,348,VALID,0,
2014-10-20, 02:57:05,VALID,917.191,VALID,0,VALID,97.412,VALID,0,VALID,20.1108,VALID,2,VALID,0,
2014-10-20, 02:58:05,VALID,917.143,VALID,0,VALID,97.4044,VALID,0,VALID,20.1513,VALID,5,VALID,0,
2014-10-20, 02:59:05,VALID,917.161,VALID,0,VALID,97.412,VALID,0,VALID,20.0913,VALID,1,VALID,0,
2014-10-20, 03:00:05,VALID,917.155,VALID,0,VALID,97.412,VALID,0.107441,VALID,20.1123,VALID,7,VALID,0,
2014-10-20, 03:01:05,VALID,917.153,VALID,0,VALID,97.3968,VALID,0,VALID,20.0913,VALID,346,VALID,0,
2014-10-20, 03:02:05,VALID,917.169,VALID,0,VALID,97.3815,VALID,0,VALID,20.1108,VALID,6,VALID,0,
2014-10-20, 03:03:05,VALID,917.172,VALID,0,VALID,97.4044,VALID,0,VALID,20.0913,VALID,16,VALID,0,
2014-10-20, 03:04:05,VALID,917.168,VALID,0,VALID,97.4044,VALID,0,VALID,20.1123,VALID,11,VALID,0,
2014-10-20, 03:05:05,VALID,917.178,VALID,0,VALID,97.4044,VALID,0,VALID,20.0928,VALID,351,VALID,0,
2014-10-20, 03:06:05,VALID,917.168,VALID,0,VALID,97.3891,VALID,0,VALID,20.0718,VALID,351,VALID,0,
2014-10-20, 03:07:05,VALID,917.178,VALID,0,VALID,97.3891,VALID,0,VALID,20.1123,VALID,351,VALID,0,
2014-10-20, 03:08:05,VALID,917.153,VALID,0,VALID,97.3815,VALID,0,VALID,20.1123,VALID,3,VALID,0,
2014-10-20, 03:09:05,VALID,917.144,VALID,0,VALID,97.3586,VALID,0,VALID,20.0928,VALID,319,VALID,0,
2014-10-20, 03:10:05,VALID,917.099,VALID,0,VALID,97.3739,VALID,0,VALID,20.0928,VALID,314,VALID,0,
2014-10-20, 03:11:05,VALID,917.11,VALID,0,VALID,97.3739,VALID,0,VALID,20.0928,VALID,14,VALID,0,
2014-10-20, 03:12:05,VALID,917.132,VALID,0,VALID,97.3663,VALID,0,VALID,20.0928,VALID,347,VALID,0,
2014-10-20, 03:13:05,VALID,917.114,VALID,0,VALID,97.3586,VALID,0,VALID,20.0928,VALID,347,VALID,0,
2014-10-20, 03:14:05,VALID,917.113,VALID,0,VALID,97.3281,VALID,0,VALID,20.1123,VALID,347,VALID,0,
2014-10-20, 03:15:05,VALID,917.113,VALID,0,VALID,97.351,VALID,0,VALID,20.1123,VALID,346,VALID,0,
2014-10-20, 03:16:05,VALID,917.079,VALID,0,VALID,97.351,VALID,0,VALID,20.0733,VALID,334,VALID,0,
2014-10-20, 03:17:05,VALID,917.081,VALID,0,VALID,97.3434,VALID,0,VALID,20.1123,VALID,346,VALID,0,
2014-10-20, 03:18:05,VALID,917.069,VALID,0,VALID,97.3205,VALID,0,VALID,20.0928,VALID,346,VALID,0,
2014-10-20, 03:19:05,VALID,917.072,VALID,0,VALID,97.3281,VALID,0.107441,VALID,20.1318,VALID,24,VALID,0,
2014-10-20, 03:20:05,VALID,917.056,VALID,0,VALID,97.3129,VALID,0,VALID,20.0913,VALID,25,VALID,0,
2014-10-20, 03:21:05,VALID,917.037,VALID,0,VALID,97.3129,VALID,0,VALID,20.1318,VALID,28,VALID,0,
2014-10-20, 03:22:05,VALID,917.01,VALID,0,VALID,97.3129,VALID,0,VALID,20.1123,VALID,349,VALID,0,
2014-10-20, 03:23:05,VALID,916.996,VALID,0,VALID,97.3129,VALID,0,VALID,20.1123,VALID,352,VALID,0,
2014-10-20, 03:24:05,VALID,917.021,VALID,0,VALID,97.3281,VALID,0,VALID,20.0913,VALID,22,VALID,0,
2014-10-20, 03:25:05,VALID,917.004,VALID,0,VALID,97.3129,VALID,0,VALID,20.1318,VALID,22,VALID,0,
2014-10-20, 03:26:05,VALID,917.032,VALID,0,VALID,97.3129,VALID,0,VALID,20.1123,VALID,22,VALID,0,
2014-10-20, 03:27:05,VALID,917.014,VALID,0,VALID,97.3129,VALID,0,VALID,20.1123,VALID,23,VALID,0,
2014-10-20, 03:28:05,VALID,917.04,VALID,0,VALID,97.3281,VALID,0,VALID,20.1123,VALID,343,VALID,0,
2014-10-20, 03:29:05,VALID,917.031,VALID,0,VALID,97.3129,VALID,0,VALID,20.0928,VALID,358,VALID,0,
2014-10-20, 03:30:05,VALID,917.042,VALID,0,VALID,97.3053,VALID,0,VALID,20.0928,VALID,10,VALID,0.358203,
2014-10-20, 03:31:05,VALID,917.034,VALID,0,VALID,97.3053,VALID,0,VALID,20.0928,VALID,20,VALID,0,
2014-10-20, 03:32:05,VALID,917.063,VALID,0,VALID,97.29,VALID,0,VALID,20.0928,VALID,8,VALID,0,
2014-10-20, 03:33:05,VALID,917.081,VALID,0,VALID,97.2672,VALID,0,VALID,20.0733,VALID,8,VALID,0,
2014-10-20, 03:34:05,VALID,917.082,VALID,0,VALID,97.2748,VALID,0,VALID,20.0928,VALID,21,VALID,0,
2014-10-20, 03:35:05,VALID,917.067,VALID,0,VALID,97.29,VALID,0,VALID,20.1123,VALID,21,VALID,0,
2014-10-20, 03:36:05,VALID,917.116,VALID,0,VALID,97.2977,VALID,0,VALID,20.0913,VALID,342,VALID,0,
2014-10-20, 03:37:05,VALID,917.14,VALID,0,VALID,97.2977,VALID,0,VALID,20.1123,VALID,348,VALID,0,
2014-10-20, 03:38:05,VALID,917.157,VALID,0,VALID,97.29,VALID,0,VALID,20.0718,VALID,336,VALID,0,
2014-10-20, 03:39:05,VALID,917.166,VALID,0,VALID,97.2748,VALID,0,VALID,20.0928,VALID,3,VALID,0,
2014-10-20, 03:40:05,VALID,917.179,VALID,0,VALID,97.2595,VALID,0,VALID,20.0733,VALID,3,VALID,0,
2014-10-20, 03:41:05,VALID,917.213,VALID,0,VALID,97.2748,VALID,0,VALID,20.0733,VALID,3,VALID,0,
2014-10-20, 03:42:05,VALID,917.173,VALID,0,VALID,97.29,VALID,0,VALID,20.0928,VALID,3,VALID,0,
2014-10-20, 03:43:05,VALID,917.184,VALID,0,VALID,97.2824,VALID,0,VALID,20.0928,VALID,3,VALID,0,
2014-10-20, 03:44:05,VALID,917.218,VALID,0,VALID,97.2748,VALID,0,VALID,20.0733,VALID,318,VALID,0,
2014-10-20, 03:45:05,VALID,917.204,VALID,0,VALID,97.2748,VALID,0,VALID,20.0928,VALID,357,VALID,0,
2014-10-20, 03:46:05,VALID,917.195,VALID,0,VALID,97.2367,VALID,0,VALID,20.1123,VALID,21,VALID,0,
2014-10-20, 03:47:05,VALID,917.205,VALID,0,VALID,97.2443,VALID,0,VALID,20.1318,VALID,21,VALID,0,
2014-10-20, 03:48:05,VALID,917.21,VALID,0,VALID,97.2595,VALID,0,VALID,20.1123,VALID,295,VALID,0,
2014-10-20, 03:49:05,VALID,917.207,VALID,0,VALID,97.2748,VALID,0,VALID,20.0733,VALID,295,VALID,0,
2014-10-20, 03:50:05,VALID,917.25,VALID,0,VALID,97.2595,VALID,0,VALID,20.0928,VALID,296,VALID,0,
2014-10-20, 03:51:05,VALID,917.227,VALID,0,VALID,97.2595,VALID,0,VALID,20.0718,VALID,296,VALID,0,
2014-10-20, 03:52:05,VALID,917.221,VALID,0,VALID,97.2443,VALID,0,VALID,20.1123,VALID,296,VALID,0,
2014-10-20, 03:53:05,VALID,917.22,VALID,0,VALID,97.2748,VALID,0,VALID,20.1123,VALID,296,VALID,0,
2014-10-20, 03:54:05,VALID,917.229,VALID,0,VALID,97.2672,VALID,0,VALID,20.1318,VALID,297,VALID,0,
2014-10-20, 03:55:05,VALID,917.222,VALID,0,VALID,97.2748,VALID,0,VALID,20.1108,VALID,314,VALID,0,
2014-10-20, 03:56:05,VALID,917.211,VALID,0,VALID,97.2824,VALID,0,VALID,20.1318,INVALID,360,VALID,0,
2014-10-20, 03:57:05,VALID,917.178,VALID,0,VALID,97.2519,VALID,0,VALID,20.1708,VALID,314,VALID,0,
2014-10-20, 03:58:05,VALID,917.188,VALID,0,VALID,97.2519,VALID,0,VALID,20.1318,VALID,314,VALID,0,